timestamp,wind_dir_avg,wind_spd_avg,wind_spd_max_dir,wind_spd_gust,battery_voltage,lat,long
2023-04-03 00:04:00+00:00,258.0,5.51,255.0,6.81,12.33,47.59359,-54.27349
2023-04-03 00:14:00+00:00,264.0,6.99,262.0,8.8,12.25,47.59359,-54.27349
2023-04-03 00:24:00+00:00,263.0,8.94,261.0,10.01,12.25,47.59359,-54.27349
2023-04-03 00:34:00+00:00,269.0,8.49,269.0,9.67,12.25,47.59359,-54.27349
2023-04-03 00:44:00+00:00,271.0,8.23,272.0,9.62,12.25,47.59359,-54.27349
2023-04-03 00:54:00+00:00,276.0,11.15,278.0,12.27,12.25,47.59359,-54.27349
2023-04-03 01:04:00+00:00,267.0,9.45,265.0,10.35,12.25,47.59359,-54.27349
2023-04-03 01:14:00+00:00,257.0,7.94,263.0,8.67,12.25,47.59359,-54.27349
2023-04-03 01:24:00+00:00,261.0,8.43,261.0,10.79,12.25,47.59359,-54.27349
2023-04-03 01:34:00+00:00,264.0,7.87,265.0,8.51,12.25,47.59359,-54.27349
2023-04-03 01:44:00+00:00,266.0,9.89,272.0,11.63,12.25,47.59359,-54.27349
2023-04-03 01:54:00+00:00,270.0,8.63,269.0,9.7,12.25,47.59359,-54.27349
2023-04-03 02:04:00+00:00,274.0,11.45,270.0,12.7,12.25,47.59359,-54.27349
2023-04-03 02:14:00+00:00,275.0,11.15,278.0,12.14,12.17,47.59359,-54.27349
2023-04-03 02:24:00+00:00,272.0,10.79,280.0,12.26,12.17,47.59359,-54.27349
2023-04-03 02:34:00+00:00,273.0,8.57,268.0,9.57,12.17,47.59359,-54.27349
2023-04-03 02:44:00+00:00,271.0,9.43,274.0,10.61,12.17,47.59359,-54.27349
2023-04-03 02:54:00+00:00,265.0,8.68,267.0,9.38,12.17,47.59359,-54.27349
2023-04-03 03:04:00+00:00,253.0,7.66,259.0,8.77,12.17,47.59359,-54.27349
2023-04-03 03:14:01+00:00,251.0,9.39,257.0,10.95,12.17,47.59359,-54.27349
2023-04-03 03:24:01+00:00,257.0,8.23,265.0,10.0,12.17,47.59359,-54.27349
2023-04-03 03:34:01+00:00,242.0,8.82,240.0,9.93,12.17,47.59359,-54.27349
2023-04-03 03:44:01+00:00,247.0,8.74,252.0,9.9,12.17,47.59359,-54.27349
2023-04-03 03:54:01+00:00,249.0,8.54,254.0,9.41,12.17,47.59359,-54.27349
2023-04-03 04:04:01+00:00,257.0,8.04,260.0,9.49,12.17,47.59359,-54.27349
2023-04-03 04:14:00+00:00,280.0,10.96,276.0,12.8,12.17,47.59359,-54.27349
2023-04-03 04:24:00+00:00,282.0,11.48,286.0,12.7,12.17,47.59359,-54.27349
2023-04-03 04:34:00+00:00,291.0,10.47,289.0,12.6,12.17,47.59359,-54.27349
2023-04-03 04:44:00+00:00,281.0,9.55,277.0,11.01,12.17,47.59359,-54.27349
2023-04-03 04:54:00+00:00,275.0,8.17,282.0,10.47,12.17,47.59359,-54.27349
2023-04-03 05:04:00+00:00,275.0,8.62,272.0,10.02,12.17,47.59359,-54.27349
2023-04-03 05:14:00+00:00,275.0,9.12,275.0,10.8,12.17,47.59359,-54.27349
2023-04-03 05:24:00+00:00,270.0,9.31,276.0,10.99,12.17,47.59359,-54.27349
2023-04-03 05:34:00+00:00,276.0,8.59,282.0,10.66,12.17,47.59359,-54.27349
2023-04-03 05:44:00+00:00,273.0,8.75,276.0,10.18,12.17,47.59359,-54.27349
2023-04-03 05:54:00+00:00,268.0,8.22,271.0,9.94,12.17,47.59359,-54.27349
2023-04-03 06:04:00+00:00,268.0,7.5,271.0,9.6,12.17,47.59359,-54.27349
2023-04-03 06:14:00+00:00,264.0,7.48,273.0,9.46,12.09,47.59359,-54.27349
2023-04-03 06:24:00+00:00,266.0,7.65,269.0,10.03,12.09,47.59359,-54.27349
2023-04-03 06:34:00+00:00,264.0,7.44,270.0,10.31,12.09,47.59359,-54.27349
2023-04-03 06:44:00+00:00,240.0,6.33,244.0,6.93,12.09,47.59359,-54.27349
2023-04-03 06:54:00+00:00,250.0,5.72,254.0,7.19,12.09,47.59359,-54.27349
2023-04-03 07:04:00+00:00,263.0,5.46,266.0,8.5,12.09,47.59359,-54.27349
2023-04-03 07:14:00+00:00,281.0,8.8,283.0,10.91,12.09,47.59359,-54.27349
2023-04-03 07:24:00+00:00,272.0,9.42,277.0,10.63,12.09,47.59359,-54.27349
2023-04-03 07:34:00+00:00,273.0,9.04,272.0,12.37,12.09,47.59359,-54.27349
2023-04-03 07:44:00+00:00,275.0,11.0,281.0,11.92,12.09,47.59359,-54.27349
2023-04-03 07:54:00+00:00,280.0,10.43,280.0,11.55,12.09,47.59359,-54.27349
2023-04-03 08:04:00+00:00,279.0,9.31,281.0,10.68,12.09,47.59359,-54.27349
2023-04-03 08:14:01+00:00,274.0,7.56,279.0,9.31,12.09,47.59359,-54.27349
2023-04-03 08:24:01+00:00,274.0,7.18,276.0,8.92,12.09,47.59359,-54.27349
2023-04-03 08:34:01+00:00,283.0,7.38,283.0,9.96,12.09,47.59359,-54.27349
2023-04-03 08:44:01+00:00,278.0,8.11,275.0,10.56,12.09,47.59359,-54.27349
2023-04-03 08:54:01+00:00,284.0,10.06,286.0,11.22,12.09,47.59359,-54.27349
2023-04-03 09:04:01+00:00,274.0,7.83,273.0,8.83,12.09,47.59359,-54.27349
2023-04-03 09:14:00+00:00,263.0,7.05,257.0,8.28,12.01,47.59359,-54.27349
2023-04-03 09:24:00+00:00,265.0,6.55,257.0,7.75,12.01,47.59359,-54.27349
2023-04-03 09:34:00+00:00,263.0,7.91,270.0,9.37,12.01,47.59359,-54.27349
2023-04-03 09:44:00+00:00,267.0,6.63,271.0,7.24,12.01,47.59359,-54.27349
2023-04-03 09:54:00+00:00,262.0,8.1,259.0,9.34,12.01,47.59359,-54.27349
2023-04-03 10:04:00+00:00,261.0,6.86,264.0,8.22,12.01,47.59359,-54.27349
2023-04-03 10:14:00+00:00,265.0,7.16,262.0,8.83,12.41,47.59359,-54.27349
2023-04-03 10:24:00+00:00,269.0,7.19,264.0,8.88,12.41,47.59359,-54.27349
2023-04-03 10:34:00+00:00,273.0,7.76,267.0,9.48,12.41,47.59359,-54.27349
2023-04-03 10:44:00+00:00,275.0,8.99,272.0,10.41,12.41,47.59359,-54.27349
2023-04-03 10:54:00+00:00,284.0,8.78,289.0,10.31,12.41,47.59359,-54.27349
2023-04-03 11:04:00+00:00,276.0,7.94,273.0,9.29,12.41,47.59359,-54.27349
2023-04-03 11:14:00+00:00,274.0,8.69,278.0,9.53,13.92,47.59359,-54.27349
2023-04-03 11:24:00+00:00,276.0,9.37,276.0,10.95,13.92,47.59359,-54.27349
2023-04-03 11:34:00+00:00,280.0,10.85,279.0,12.62,13.92,47.59359,-54.27349
2023-04-03 11:44:00+00:00,277.0,10.72,278.0,11.72,13.92,47.59359,-54.27349
2023-04-03 11:54:00+00:00,275.0,9.59,271.0,10.61,13.92,47.59359,-54.27349
2023-04-03 12:04:00+00:00,278.0,9.89,275.0,11.24,13.92,47.59359,-54.27349
2023-04-03 12:14:00+00:00,274.0,8.64,271.0,10.21,13.68,47.59359,-54.27349
2023-04-03 12:24:00+00:00,263.0,10.38,273.0,11.63,13.68,47.59359,-54.27349
2023-04-03 12:34:00+00:00,258.0,11.49,266.0,13.58,13.68,47.59359,-54.27349
2023-04-03 12:44:00+00:00,262.0,9.5,264.0,11.26,13.68,47.59359,-54.27349
2023-04-03 12:54:00+00:00,253.0,12.16,253.0,14.67,13.68,47.59359,-54.27349
2023-04-03 13:04:00+00:00,253.0,12.45,250.0,14.29,13.68,47.59359,-54.27349
2023-04-03 13:14:00+00:00,265.0,12.36,268.0,14.33,13.6,47.59359,-54.27349
2023-04-03 13:24:00+00:00,262.0,12.14,269.0,13.52,13.6,47.59359,-54.27349
2023-04-03 13:34:00+00:00,255.0,10.81,255.0,12.67,13.6,47.59359,-54.27349
2023-04-03 13:44:00+00:00,264.0,11.14,264.0,12.88,13.6,47.59359,-54.27349
2023-04-03 13:54:00+00:00,261.0,11.91,259.0,15.01,13.6,47.59359,-54.27349
2023-04-03 14:04:00+00:00,256.0,10.59,247.0,13.01,13.6,47.59359,-54.27349
2023-04-03 14:14:00+00:00,252.0,12.67,258.0,14.41,13.6,47.59359,-54.27349
2023-04-03 14:24:00+00:00,265.0,12.09,256.0,14.64,13.6,47.59359,-54.27349
2023-04-03 14:34:00+00:00,258.0,11.86,256.0,15.5,13.6,47.59359,-54.27349
2023-04-03 14:44:00+00:00,263.0,13.82,265.0,15.87,13.6,47.59359,-54.27349
2023-04-03 14:54:00+00:00,267.0,13.37,259.0,15.56,13.6,47.59359,-54.27349
2023-04-03 15:04:00+00:00,270.0,11.68,266.0,13.03,13.6,47.59359,-54.27349
2023-04-03 15:14:00+00:00,273.0,12.07,270.0,13.75,13.92,47.59359,-54.27349
2023-04-03 15:24:00+00:00,258.0,13.83,260.0,15.69,13.92,47.59359,-54.27349
2023-04-03 15:34:00+00:00,259.0,12.47,259.0,15.48,13.92,47.59359,-54.27349
2023-04-03 15:44:00+00:00,261.0,14.56,264.0,15.86,13.92,47.59359,-54.27349
2023-04-03 15:54:00+00:00,266.0,13.71,265.0,15.14,13.92,47.59359,-54.27349
2023-04-03 16:04:00+00:00,258.0,11.41,258.0,12.79,13.92,47.59359,-54.27349
2023-04-03 16:14:00+00:00,261.0,12.95,262.0,15.34,13.6,47.59359,-54.27349
2023-04-03 16:24:00+00:00,275.0,13.16,275.0,15.34,13.6,47.59359,-54.27349
2023-04-03 16:34:00+00:00,264.0,13.55,263.0,15.72,13.6,47.59359,-54.27349
2023-04-03 16:44:00+00:00,260.0,12.75,260.0,14.51,13.6,47.59359,-54.27349
2023-04-03 16:54:00+00:00,262.0,14.98,264.0,16.77,13.6,47.59359,-54.27349
2023-04-03 17:04:00+00:00,256.0,14.3,260.0,16.91,13.6,47.59359,-54.27349
2023-04-03 17:14:00+00:00,265.0,15.23,264.0,17.62,14.4,47.59359,-54.27349
2023-04-03 17:24:00+00:00,265.0,13.01,262.0,14.82,14.4,47.59359,-54.27349
2023-04-03 17:34:00+00:00,268.0,13.41,271.0,17.07,14.4,47.59359,-54.27349
2023-04-03 17:44:00+00:00,265.0,12.7,268.0,14.1,14.4,47.59359,-54.27349
2023-04-03 17:54:00+00:00,269.0,14.57,272.0,17.18,14.4,47.59359,-54.27349
2023-04-03 18:04:00+00:00,273.0,11.51,273.0,12.98,14.4,47.59359,-54.27349
2023-04-03 18:14:00+00:00,281.0,14.86,285.0,17.11,14.4,47.59359,-54.27349
2023-04-03 18:24:00+00:00,274.0,14.99,273.0,17.08,14.4,47.59359,-54.27349
2023-04-03 18:34:00+00:00,268.0,13.73,266.0,16.71,14.4,47.59359,-54.27349
2023-04-03 18:44:00+00:00,273.0,11.98,276.0,13.75,14.4,47.59359,-54.27349
2023-04-03 18:54:00+00:00,257.0,14.19,258.0,16.57,14.4,47.59359,-54.27349
2023-04-03 19:04:00+00:00,265.0,14.99,268.0,17.28,14.4,47.59359,-54.27349
2023-04-03 19:14:01+00:00,261.0,14.47,264.0,17.07,13.92,47.59359,-54.27349
2023-04-03 19:24:01+00:00,266.0,12.32,265.0,14.87,13.92,47.59359,-54.27349
2023-04-03 19:34:01+00:00,263.0,14.02,259.0,16.97,13.92,47.59359,-54.27349
2023-04-03 19:44:01+00:00,271.0,12.39,273.0,14.87,13.92,47.59359,-54.27349
2023-04-03 19:54:01+00:00,269.0,11.4,265.0,14.52,13.92,47.59359,-54.27349
2023-04-03 20:04:01+00:00,252.0,12.5,256.0,13.7,13.92,47.59359,-54.27349
2023-04-03 20:14:01+00:00,267.0,8.93,257.0,10.75,13.68,47.59359,-54.27349
2023-04-03 20:24:01+00:00,263.0,11.62,265.0,13.76,13.68,47.59359,-54.27349
2023-04-03 20:34:01+00:00,279.0,11.48,279.0,12.63,13.68,47.59359,-54.27349
2023-04-03 20:44:01+00:00,269.0,10.06,276.0,11.16,13.68,47.59359,-54.27349
2023-04-03 20:54:01+00:00,271.0,12.85,274.0,14.52,13.68,47.59359,-54.27349
2023-04-03 21:04:01+00:00,282.0,13.91,284.0,17.9,13.68,47.59359,-54.27349
2023-04-03 21:14:01+00:00,274.0,12.07,279.0,16.25,13.53,47.59359,-54.27349
2023-04-03 21:24:01+00:00,278.0,10.87,275.0,12.15,13.53,47.59359,-54.27349
2023-04-03 21:34:01+00:00,269.0,10.98,270.0,12.55,13.53,47.59359,-54.27349
2023-04-03 21:44:01+00:00,259.0,9.1,266.0,10.47,13.53,47.59359,-54.27349
2023-04-03 21:54:01+00:00,266.0,7.83,271.0,9.32,13.53,47.59359,-54.27349
2023-04-03 22:04:01+00:00,266.0,8.62,272.0,9.6,13.53,47.59359,-54.27349
2023-04-03 22:14:01+00:00,266.0,9.06,266.0,12.16,12.97,47.59359,-54.27349
2023-04-03 22:24:01+00:00,260.0,8.53,255.0,11.44,12.97,47.59359,-54.27349
2023-04-03 22:34:01+00:00,259.0,8.38,269.0,9.73,12.97,47.59359,-54.27349
2023-04-03 22:44:01+00:00,267.0,9.71,266.0,11.2,12.97,47.59359,-54.27349
2023-04-03 22:54:01+00:00,272.0,9.72,273.0,11.28,12.97,47.59359,-54.27349
2023-04-03 23:04:01+00:00,267.0,8.64,267.0,10.03,12.97,47.59359,-54.27349
2023-04-03 23:14:00+00:00,272.0,9.1,279.0,10.06,12.41,47.59359,-54.27349
2023-04-03 23:24:00+00:00,269.0,9.12,268.0,10.64,12.41,47.59359,-54.27349
2023-04-03 23:34:00+00:00,268.0,8.82,271.0,9.65,12.41,47.59359,-54.27349
2023-04-03 23:44:00+00:00,265.0,8.67,270.0,9.53,12.41,47.59359,-54.27349
2023-04-03 23:54:00+00:00,268.0,8.56,269.0,9.57,12.41,47.59359,-54.27349
